Вернуться в каталог

COSMOS 1823 DEB

АктивенLEO
NORAD 18755·DEBRIS·🇷🇺 Russia

Запущен Feb 20, 1987 с Plesetsk Cosmodrome

Loading…

Ближайшие Пролёты (ближайшие 24 часа)

TLE

СвежийSource: Space-Track

Эпоха: Sep 14, 2026, 03:47 UTC

1 18755U 87020AG  26257.15801414 -.00000052  00000-0 -25542-3 0  9999
2 18755  73.6388 313.1372 0033830  55.2959 334.1907 12.42511609756078

Отслеживайте COSMOS 1823 DEB в реальном времени с AllMySat

Download on the App Store